Dewpoint
64 70 78 76 75 76 77 78 77 76 76 75 75 75 76 75 75 72 74 74 74 74 73 73 73 73 72 73 73 73 73 73 72 72 72 73 72 72 71 71 72 61 72
65 69 78 78 76 76 76 77 77 77 75 75 76 75 75 75 75 74 71 73 73 73 73 73 73 74 74 74 74 73 73 72 73 73 71 73 72 70 71 70 71 70 72
65 69 72 78 77 76 76 76 76 77 75 75 75 74 75 74 74 74 73 71 69 69 72 73 74 74 73 73 73 73 72 72 73 73 71 66 69 71 71 72 73 72 70
65 67 69 78 78 77 76 76 76 76 76 76 75 74 74 74 73 73 73 72 70 71 71 73 73 74 74 73 73 72 72 72 72 72 69 65 65 72 72 72 73 72 72
65 67 73 77 77 77 76 76 76 76 76 76 75 74 73 73 73 73 73 72 73 73 70 72 73 73 73 72 74 73 73 73 72 71 67 66 64 71 73 73 72 70 68
67 70 76 77 76 76 76 76 76 75 75 75 75 75 74 73 73 73 73 72 72 73 73 71 72 73 73 73 74 74 74 73 73 71 70 66 69 73 72 71 70 70 72
70 71 73 78 77 76 76 76 75 75 75 75 75 74 74 74 73 73 73 73 73 73 73 74 72 73 74 74 73 74 74 74 71 62 66 64 69 73 72 69 71 68 72
66 68 73 77 77 76 76 76 76 75 75 75 75 75 74 74 73 73 73 73 73 73 73 74 73 72 74 74 73 74 74 73 68 62 63 65 73 71 72 72 72 70 72
66 71 72 73 76 76 76 76 76 76 75 75 74 75 74 73 74 74 73 73 73 72 72 73 73 73 73 74 74 74 74 72 70 67 64 68 75 72 71 72 72 72 71
66 71 71 73 75 75 73 76 76 75 75 76 75 75 75 74 74 74 74 74 73 72 72 72 73 73 74 75 74 74 73 73 69 67 65 68 74 72 72 71 73 73 70
66 67 72 73 74 74 75 74 75 74 75 75 74 74 74 70 72 72 73 73 73 73 71 72 72 73 74 75 74 73 73 68 67 68 70 74 75 72 73 72 73 73 72
66 66 70 71 72 73 69 75 72 72 70 71 72 73 71 72 74 74 73 73 73 73 73 72 73 73 73 69 71 72 69 67 67 71 72 75 75 72 73 74 73 73 72
66 65 69 72 74 72 72 71 69 69 69 70 74 74 74 75 74 69 75 69 70 73 70 72 71 69 68 70 71 68 66 66 67 66 71 75 75 73 73 74 74 74 73
65 66 70 71 73 74 75 68 70 71 75 75 71 75 75 77 77 75 76 75 75 75 75 73 71 70 70 71 71 71 69 69 67 68 74 75 75 74 73 73 75 75 74
66 68 73 72 74 73 75 76 77 74 73 73 73 72 72 75 75 74 73 74 73 77 74 75 73 72 71 70 69 69 69 71 68 68 72 75 75 75 74 74 74 75 75
67 71 71 72 74 75 78 75 74 72 73 73 73 72 72 73 73 72 72 71 71 72 74 75 77 71 71 71 68 69 71 70 70 71 66 73 76 75 75 74 75 75 74
68 70 71 73 73 76 75 73 72 73 70 71 72 72 72 73 73 73 70 68 72 74 75 75 76 76 73 71 72 72 72 71 67 72 71 72 72 75 75 75 75 75 75
71 67 73 74 69 71 74 77 77 73 71 74 73 72 72 72 72 73 74 70 70 71 73 76 77 72 75 73 75 69 71 71 73 72 70 68 73 69 73 75 75 75 75
72 68 72 72 70 70 74 75 76 74 75 73 73 72 72 71 72 74 71 70 74 70 78 74 71 73 72 72 72 74 70 70 71 67 69 69 71 70 70 73 74 75 75
72 74 73 71 70 68 71 76 73 71 71 71 73 72 73 72 71 76 74 75 74 76 77 70 74 75 70 70 68 65 70 70 69 69 66 65 69 70 68 70 74 71 75
67 67 68 65 66 70 71 74 72 70 69 70 71 72 71 73 74 75 77 76 76 76 73 73 71 72 67 68 68 66 68 69 68 68 67 63 65 69 68 68 70 70 72
68 66 70 68 71 73 74 72 70 68 69 71 72 73 72 73 72 72 73 74 72 73 73 72 72 71 71 72 69 72 66 64 66 65 67 65 63 64 65 68 70 74 75
68 68 73 71 74 75 72 70 69 69 69 69 71 72 72 72 70 70 71 70 72 72 65 74 72 72 72 73 72 69 66 67 67 66 69 70 71 70 65 69 72 71 75
67 71 73 74 75 72 71 70 70 65 66 73 72 73 74 70 69 68 70 70 71 69 73 70 75 73 73 70 73 73 68 70 69 68 72 73 72 70 72 72 73 73 73
68 68 69 74 74 72 72 71 69 72 72 70 71 71 74 72 68 68 70 73 72 74 74 73 73 73 74 72 72 72 71 68 67 70 66 69 68 69 70 71 72 73 73
66 68 70 73 73 72 71 72 71 70 71 71 73 72 70 66 67 70 70 71 72 72 73 74 73 72 73 73 73 69 67 71 70 67 69 67 67 67 68 69 69 69 70
Lifted_Index
-5 -6 -7 -8 -7 -8 -8 -8 -8 -7 -7 -6 -7 -7 -7 -7 -6 -5 -6 -6 -6 -6 -5 -5 -5 -5 -4 -4 -4 -4 -3 -3 -3 -3 -3 -3 -3 -2 -2 -2 -1 -0 -1
-5 -5 -7 -8 -8 -8 -8 -8 -8 -7 -7 -6 -6 -6 -6 -6 -6 -6 -5 -5 -5 -5 -5 -5 -5 -5 -5 -4 -4 -4 -3 -3 -3 -3 -2 -2 -2 -2 -2 -2 -1 -1 -1
-5 -5 -6 -7 -8 -8 -8 -8 -8 -7 -7 -7 -6 -6 -6 -6 -6 -6 -5 -4 -4 -4 -5 -5 -5 -5 -5 -4 -4 -3 -3 -3 -3 -3 -2 -2 -2 -2 -2 -2 -2 -1 -1
-5 -5 -6 -7 -8 -8 -8 -8 -8 -8 -7 -7 -6 -6 -6 -6 -6 -5 -5 -4 -4 -4 -4 -5 -5 -5 -5 -4 -4 -3 -3 -3 -3 -3 -2 -1 -1 -2 -3 -3 -2 -1 -1
-5 -5 -6 -7 -8 -8 -8 -8 -8 -7 -7 -7 -7 -7 -6 -6 -6 -6 -6 -5 -5 -5 -4 -5 -5 -5 -5 -4 -4 -4 -4 -3 -3 -3 -2 -1 -1 -2 -3 -3 -2 -1 -1
-6 -6 -7 -7 -7 -7 -7 -7 -7 -7 -7 -7 -7 -7 -7 -6 -6 -6 -6 -6 -5 -5 -5 -5 -5 -5 -5 -5 -4 -4 -4 -4 -3 -2 -1 -1 -1 -2 -3 -2 -2 -1 -2
-6 -6 -7 -8 -8 -7 -7 -7 -7 -7 -7 -7 -7 -7 -7 -7 -6 -6 -6 -6 -6 -6 -6 -5 -5 -5 -5 -5 -4 -4 -4 -4 -3 -1 -1 -1 -2 -2 -2 -2 -2 -2 -2
-6 -6 -7 -8 -8 -8 -7 -7 -7 -7 -7 -7 -7 -7 -7 -7 -6 -6 -6 -6 -6 -6 -6 -5 -5 -5 -5 -5 -5 -4 -4 -4 -2 -1 -1 -1 -2 -2 -2 -3 -2 -2 -2
-5 -6 -6 -7 -7 -7 -7 -7 -7 -7 -7 -6 -6 -7 -7 -6 -6 -6 -6 -6 -6 -6 -5 -5 -5 -5 -5 -5 -5 -5 -4 -4 -3 -2 -1 -2 -2 -2 -2 -3 -3 -2 -2
-5 -6 -6 -7 -7 -7 -7 -7 -7 -7 -7 -7 -6 -6 -6 -6 -6 -6 -6 -6 -5 -5 -5 -5 -5 -5 -5 -5 -5 -5 -4 -4 -3 -3 -2 -2 -3 -2 -2 -2 -3 -3 -2
-5 -5 -6 -7 -7 -7 -7 -7 -7 -7 -6 -6 -6 -6 -6 -6 -6 -6 -5 -5 -5 -5 -5 -5 -5 -5 -5 -5 -5 -5 -4 -4 -3 -3 -3 -3 -3 -3 -3 -3 -3 -3 -3
-5 -5 -6 -7 -7 -7 -7 -6 -6 -6 -6 -6 -6 -6 -6 -5 -5 -5 -5 -5 -5 -5 -5 -5 -5 -5 -5 -5 -5 -4 -4 -4 -4 -4 -4 -4 -3 -3 -3 -4 -4 -3 -3
-5 -5 -6 -6 -6 -7 -7 -6 -6 -6 -6 -5 -6 -6 -6 -5 -5 -5 -5 -4 -4 -5 -4 -4 -4 -4 -4 -4 -4 -4 -4 -4 -4 -4 -4 -4 -4 -4 -4 -4 -4 -4 -4
-5 -5 -6 -6 -6 -7 -7 -6 -6 -5 -5 -5 -5 -6 -6 -5 -5 -4 -4 -4 -4 -4 -4 -4 -4 -4 -4 -4 -4 -4 -4 -4 -3 -4 -4 -4 -4 -4 -4 -4 -4 -4 -4
-6 -6 -7 -7 -7 -7 -7 -6 -6 -5 -5 -5 -4 -4 -4 -4 -4 -3 -3 -3 -4 -4 -4 -5 -4 -4 -4 -4 -4 -4 -4 -4 -3 -3 -4 -4 -4 -4 -4 -4 -4 -4 -4
-7 -7 -8 -8 -8 -7 -7 -6 -5 -5 -4 -3 -3 -3 -3 -3 -3 -3 -3 -3 -3 -3 -4 -5 -5 -5 -4 -4 -4 -4 -4 -3 -3 -3 -3 -4 -4 -4 -4 -4 -4 -4 -4
-7 -7 -7 -7 -7 -7 -6 -6 -5 -4 -3 -2 -2 -2 -2 -2 -2 -3 -3 -2 -2 -3 -4 -5 -5 -5 -4 -4 -4 -4 -4 -3 -3 -3 -3 -3 -3 -3 -4 -4 -4 -5 -5
-7 -5 -4 -5 -5 -5 -5 -5 -4 -4 -3 -2 -2 -2 -2 -2 -2 -3 -3 -3 -3 -3 -4 -5 -5 -5 -4 -4 -4 -4 -4 -3 -3 -3 -3 -3 -3 -3 -3 -4 -4 -5 -5
-6 -5 -4 -3 -3 -4 -4 -4 -4 -3 -2 -2 -2 -2 -1 -1 -2 -3 -4 -4 -4 -4 -4 -4 -4 -4 -4 -4 -4 -4 -3 -3 -3 -2 -2 -2 -3 -3 -3 -3 -4 -4 -4
-5 -5 -3 -2 -2 -3 -4 -4 -3 -2 -1 -1 -1 -1 -1 -2 -3 -4 -4 -4 -4 -4 -4 -4 -4 -4 -3 -3 -3 -3 -3 -3 -3 -2 -2 -2 -2 -3 -3 -3 -3 -4 -4
-4 -3 -2 -2 -3 -4 -5 -5 -3 -1 -0 -0 -1 -1 -2 -2 -3 -4 -5 -4 -4 -4 -4 -4 -3 -3 -3 -3 -3 -3 -3 -3 -2 -2 -2 -2 -2 -2 -2 -3 -3 -4 -4
-3 -3 -3 -3 -4 -5 -6 -5 -4 -2 -1 -1 -1 -1 -2 -3 -3 -4 -4 -4 -4 -3 -3 -3 -3 -3 -3 -3 -3 -3 -2 -2 -2 -2 -2 -2 -2 -2 -2 -2 -3 -4 -4
-5 -5 -5 -6 -6 -6 -6 -5 -4 -3 -2 -2 -2 -2 -2 -3 -3 -3 -3 -3 -3 -3 -2 -3 -3 -3 -3 -3 -3 -3 -2 -2 -2 -2 -2 -2 -3 -2 -2 -3 -3 -3 -4
-6 -6 -7 -7 -7 -7 -6 -5 -4 -4 -4 -3 -3 -3 -3 -3 -3 -2 -2 -2 -2 -3 -3 -3 -3 -3 -3 -3 -3 -3 -2 -2 -3 -3 -3 -3 -3 -3 -3 -3 -3 -3 -3
-6 -6 -7 -7 -7 -7 -6 -6 -5 -5 -5 -5 -4 -4 -4 -3 -2 -2 -2 -2 -2 -3 -3 -3 -3 -3 -3 -3 -3 -2 -2 -2 -3 -3 -3 -3 -2 -2 -2 -3 -3 -3 -3
-6 -6 -7 -7 -7 -7 -7 -6 -6 -6 -6 -6 -4 -4 -4 -3 -2 -2 -2 -2 -2 -3 -3 -3 -3 -3 -3 -3 -3 -2 -2 -2 -3 -3 -3 -3 -2 -2 -2 -2 -2 -2 -2